Location: Marsån
(66.4167°N, 22.2833°E)
Time: 09:35:00
(UTC+00:00)

IRIDIUM 106 - Pass Details

Date: 24 February 2024
Orbit: 776 x 779 km, 86.4° (Epoch: 20 April)

Event Time Altitude Azimuth Distance (km) Brightness Sun altitude
Rises 17:47:06 0° 179° (S) 3,260 7.4 -14.9°
Reaches altitude 10° 17:49:27 10° 178° (S) 2,336 6.7 -15.2°
Maximum altitude 17:54:40 75° 94° (E) 815 4.2 -15.7°
Drops below altitude 10° 17:59:55 10° 10° (N) 2,350 6.9 -16.2°
Sets 18:02:17 0° 9° (N) 3,282 7.6 -16.4°
